Tracking 19489 objects as of 22-Jan-2019
HD Live streaming from Space Station
objects crossing your sky now

COSMOS 1554 (GLONASS)

Track COSMOS 1554 (GLONASS) now!
COSMOS 1554 (GLONASS) is classified as:


NORAD ID: 14977
Int'l Code: 1984-047A
Perigee: 19,094.7 km
Apogee: 19,179.4 km
Inclination: 66.2 °
Period: 675.7 minutes
Semi major axis: 25508 km
RCS: 1.501 m2 (large)
Launch date: May 19, 1984
Source: Commonwealth of Independent States (former USSR) (CIS)
Launch site: TYURATAM MISSILE AND SPACE COMPLEX (TTMTR)
SV:
aabbcc
Your satellite tracking list
Your tracking list is empty




NASA's NSSDC Master Catalog

Two Line Element Set (TLE):
1 14977U 84047A   19021.74369510 -.00000005  00000-0  00000+0 0  9994
2 14977  66.1548  56.3452 0016595 234.0551 254.8713  2.13101551241928
Source of the keplerian elements: AFSPC